Tracking 18957 objects as of 22-Jan-2018
HD Live streaming from Space Station
objects crossing your sky now

SAUDICOMSAT 1

Track SAUDICOMSAT 1 now!
10-day predictions
SAUDICOMSAT 1 is classified as:


NORAD ID: 28369
Int'l Code: 2004-025D
Perigee: 700.2 km
Apogee: 749.7 km
Inclination: 98.2 °
Period: 99.1 minutes
Semi major axis: 7095 km
RCS: 0.0481 m2 (small)
Launch date: June 29, 2004
Source: Saudi Arabia (SAUD)
Launch site: TYURATAM MISSILE AND SPACE COMPLEX (TTMTR)
aabbcc
Your satellite tracking list
Your tracking list is empty




NASA's NSSDC Master Catalog

Two Line Element Set (TLE):
1 28369U 04025D   18021.52664948 +.00000046 +00000-0 +22234-4 0  9992
2 28369 098.2252 333.8480 0034847 072.3583 288.1414 14.52409362718427
Source of the keplerian elements: AFSPC